EUTELSAT QUANTUM

Last updated on Wed Sep 17 2025 00:02:50 GMT+0000 (Coordinated Universal Time)

1 49056U 21069B 25259.59317873 .00000000 00000+0 00000+0 0 9996 2 49056 0.0149 139.9938 0002490 69.2196 47.8267 1.00272962 15188
UTC large
Height (km)
Speed (km/s)
/
Latitude / Longitude
Inclination (degrees)
Orbital Period (minutes)
Azimuth
Elevation
Range (km)
Doppler Factor

Next 0 passes for location: London (51.5072 / 0.1276)

Sorry there are no passes over London.